Location: Hains Lake
(37.8540°N, 99.8578°W)
Time: 10:04:17
(UTC+00:00)

Tiros 1 despin weight - Pass Details

Date: 22 April 2021
Orbit: 593 x 642 km, 48.2° (Epoch: 07 May)

Event Time Altitude Azimuth Distance (km) Brightness Sun altitude
Rises 14:06:19 0° 297° (WNW) 2,896 ? 25.0°
Reaches altitude 10° 14:09:05 10° 313° (NW) 1,979 ? 25.5°
Maximum altitude 14:12:40 22° 5° (N) 1,340 ? 26.2°
Drops below altitude 10° 14:16:11 10° 57° (ENE) 1,954 ? 26.9°
Sets 14:18:54 0° 73° (ENE) 2,848 ? 27.4°
